McGrath, AK

12:56 PM AKDT on August 21, 2017 (GMT -0800)
McGrath

Weather History for PAMC - March, 2013

Change the Weather History Date:

Wednesday, March 20, 2013

  Actual Average Record
Temperature  
Mean Temperature 1 °F 13 °F  
Max Temperature 20 °F 26 °F 55 °F (1998)
Min Temperature -19 °F -1 °F -35 °F (1975)
Degree Days  
Heating Degree Days 64 52  
Month to date heating degree days 1073 1115  
Since 1 July heating degree days 11605 11347  
Cooling Degree Days 0 0  
Month to date cooling degree days 0 0  
Year to date cooling degree days 0 0  
Moisture  
Dew Point -1 °F    
Average Humidity 0    
Maximum Humidity 0    
Minimum Humidity 0    
Precipitation  
Precipitation 0.02 in 0.02 in 0.17 in (1984)
Month to date precipitation 0.17 0.56  
Year to date precipitation 3.34 2.59  
Snow  
Snow 0.60 in 0.30 in 2.50 in (1984)
Month to date snowfall 3.1 8.2  
Since 1 July snowfall 69.0 88.2  
Snow Depth 29.00 in    
Sea Level Pressure  
Sea Level Pressure 30.05 in    
Wind  
Wind Speed 3 mph (SW)    
Max Wind Speed 12 mph    
Max Gust Speed 17 mph    
Visibility 7 miles    
Events Snow    
T = Trace of Precipitation, MM = Missing Value Source: NWS Daily Summary

Daily Weather History Graph

Daily Weather History Graph

Search for Another Location

Airport or City:

Trip Planner

Search our weather history database for the weather conditions in past years. The results will help you decide how hot, cold, wet, or windy it might be!

Date:

Astronomy

Mar. 20, 2013 Rise Set
Actual Time 8:21 AM AKDT 8:39 PM AKDT
Civil Twilight 7:36 AM AKDT 9:25 PM AKDT
Nautical Twilight 6:40 AM AKDT 10:21 PM AKDT
Astronomical Twilight 5:38 AM AKDT 11:24 PM AKDT
Moon 12:37 PM AKDT (3/20) 5:58 AM AKDT (3/20)
Length of Visible Light 13h 49m
Length of Day
12h 17m
First Quarter, 60% of the Moon is Illuminated
Mar 20
First Quarter
Mar 27
Full
Apr 2
Last Quarter
Apr 10
New
Apr 18
First Quarter

Hourly Weather History & Observations

Time (AKDT) Temp. Windchill Dew Point Humidity Pressure Visibility Wind Dir Wind Speed Gust Speed Precip Events Conditions
12:53 AM -11.0 °F - -16.1 °F 78% 30.21 in 10.0 mi Calm Calm - N/A   Scattered Clouds
1:53 AM -13.0 °F - -18.9 °F 75% 30.20 in 10.0 mi Calm Calm - N/A   Scattered Clouds
2:53 AM -16.1 °F - -20.9 °F 79% 30.19 in 10.0 mi Calm Calm - N/A   Partly Cloudy
3:53 AM -18.0 °F - -23.1 °F 78% 30.18 in 10.0 mi Calm Calm - N/A   Scattered Clouds
4:53 AM -18.0 °F - -23.1 °F 78% 30.17 in 10.0 mi Calm Calm - N/A   Scattered Clouds
5:53 AM -16.1 °F - -22.0 °F 74% 30.16 in 10.0 mi Calm Calm - N/A   Mostly Cloudy
6:53 AM -13.0 °F - -18.9 °F 75% 30.14 in 10.0 mi Calm Calm - N/A   Overcast
7:53 AM -9.0 °F -18.2 °F -15.0 °F 75% 30.13 in 10.0 mi West 3.5 mph - N/A   Overcast
8:53 AM -7.1 °F - -11.9 °F 79% 30.10 in 10.0 mi Calm Calm - N/A   Overcast
9:53 AM -2.0 °F -10.1 °F -9.0 °F 72% 30.09 in 10.0 mi East 3.5 mph - N/A   Overcast
10:53 AM 3.0 °F - -4.0 °F 73% 30.07 in 3.0 mi Calm Calm - 0.00 in Snow Light Snow
11:35 AM 5.0 °F -2.1 °F -0.4 °F 78% 30.01 in 1.0 mi ESE 3.5 mph - 0.00 in Snow Light Snow
11:53 AM 6.1 °F - 1.0 °F 80% 30.05 in 1.0 mi Calm Calm - 0.00 in Snow Light Snow
12:03 PM 6.8 °F - 1.4 °F 79% 30.01 in 2.0 mi Calm Calm - 0.00 in Snow Light Snow
12:18 PM 8.6 °F - 1.4 °F 73% 30.00 in 1.8 mi Calm Calm - 0.00 in Snow Light Snow
12:53 PM 8.1 °F - 3.0 °F 80% 30.03 in 2.0 mi Calm Calm - 0.01 in Snow Light Snow
1:00 PM 8.6 °F - 3.2 °F 79% 29.99 in 1.5 mi Calm Calm - 0.00 in Snow Light Snow
1:35 PM 10.4 °F 4.0 °F 3.2 °F 73% 29.98 in 3.0 mi Variable 3.5 mph - 0.00 in Snow Light Snow
1:53 PM 10.9 °F 2.9 °F 3.9 °F 73% 30.01 in 8.0 mi SSE 4.6 mph - 0.00 in Snow Light Snow
2:53 PM 15.1 °F 5.2 °F 6.1 °F 68% 30.00 in 8.0 mi SW 6.9 mph - 0.00 in   Overcast
3:53 PM 16.0 °F 7.4 °F 9.0 °F 74% 29.99 in 6.0 mi SSE 5.8 mph - 0.00 in Snow Light Snow
4:11 PM 17.6 °F 12.3 °F 8.6 °F 68% 29.95 in 9.0 mi Variable 3.5 mph - 0.00 in Snow Light Snow
4:53 PM 18.0 °F 8.7 °F 10.0 °F 71% 29.98 in 9.0 mi SSW 6.9 mph - 0.00 in Snow Light Snow
5:53 PM 19.9 °F 8.6 °F 8.1 °F 60% 29.98 in 10.0 mi WSW 10.4 mph - 0.00 in   Overcast
6:53 PM 19.9 °F 8.6 °F 9.0 °F 62% 29.99 in 6.0 mi WSW 10.4 mph 17.3 mph 0.00 in Snow Light Snow
6:59 PM 19.4 °F 10.4 °F 10.4 °F 68% 29.95 in 1.8 mi West 6.9 mph 17.3 mph 0.00 in Snow Light Snow
7:34 PM 19.4 °F 11.5 °F 14.0 °F 80% 29.96 in 0.8 mi West 5.8 mph - 0.01 in Snow Light Snow
7:44 PM 17.6 °F 12.3 °F 12.2 °F 79% 29.96 in 2.0 mi West 3.5 mph - 0.01 in Snow Light Snow
7:53 PM 18.0 °F 11.1 °F 12.9 °F 81% 30.00 in 4.0 mi West 4.6 mph - 0.01 in Snow Light Snow
8:29 PM 15.8 °F 7.2 °F 8.6 °F 73% 29.97 in 10.0 mi SW 5.8 mph - 0.00 in   Scattered Clouds
8:53 PM 15.1 °F 7.7 °F 8.1 °F 74% 30.01 in 10.0 mi SSW 4.6 mph - 0.00 in   Scattered Clouds
10:18 PM 12.2 °F 6.1 °F 8.6 °F 85% 29.99 in 10.0 mi South 3.5 mph - N/A   Scattered Clouds
10:53 PM 12.0 °F 2.7 °F 8.1 °F 84% 30.02 in 10.0 mi SE 5.8 mph - N/A   Scattered Clouds
11:53 PM 3.9 °F - 1.0 °F 88% 30.04 in 10.0 mi Calm Calm - N/A   Mostly Cloudy